Regional Weather Roundup
Issued by NWS Wakefield, VA

Home | Current Version | Previous Version | Text Only | Print | Product List | Glossary Off
Versions: 1 2 3 4 5 6 7 8 9 10 11 12 13 14 15 16 17 18 19 20 21 22 23 24 25 26 27

000
ASUS41 KAKQ 281415
RWRAKQ

REGIONAL WEATHER ROUNDUP
NATIONAL WEATHER SERVICE WAKEFIELD VA
1000 AM EDT THU APR 28 2016

Note: "fair" indicates few or no clouds below 12,000 feet with no
significant weather and/or obstructions to visibility. * = Denotes
station may not report precipitation (e.g., rain,snow,etc.),
thunder or fog.

VAZ042-051-052>054-056-281500-
NORTHERN VIRGINIA

CITY           SKY/WX    TMP DP  RH WIND       PRES   REMARKS
WASH NATIONAL  RAIN      54  51  90 NE9       29.99S FOG
DULLES         LGT RAIN  53  50  89 E7        29.98S FOG
FORT BELVOIR   LGT RAIN  53  51  93 VRB1      29.98F FOG
QUANTICO       LGT RAIN  55  52  89 E5        29.99S
FREDERICKSBRG* LGT RAIN  55  55 100 E3        29.98R
STAFFORD*      LGT RAIN  53  51  94 E6        30.02R
WARRENTON      HVY RAIN  54  49  84 CALM      30.00R
CULPEPER*      LGT RAIN  55  54  99 N3        30.00R
MANASSAS*      LGT RAIN  54  52  94 E3        29.99R FOG
LEESBURG*      HVY RAIN  54  54 100 NE3       30.00R
WINCHESTER     RAIN      52  52 100 E6        29.97S
FRONT ROYAL*   CLOUDY    52  52 100 NE5       29.94F
LURAY*         LGT RAIN  54  54 100 NE3       29.93F
$$

VAZ048-049-060>072-079>083-281500-
CENTRAL AND SOUTH CENTRAL VIRGINIA

CITY           SKY/WX    TMP DP  RH WIND       PRES   REMARKS
RICHMOND       LGT RAIN  56  55  97 NE6       29.97S FOG
CHESTERFIELD*  CLOUDY    57  45  62 NE5       29.98R
PETERSBURG*    CLOUDY    60  60 100 N6        29.97R FOG
HANOVER        LGT RAIN  55  53  93 E5        29.99S FOG
TAPPAHANNOCK*  DRIZZLE   55  55 100 NE6       29.99S
QUINTON*       CLOUDY    56  55  99 E7        29.97R FOG
CHARLOTTSVILLE LGT RAIN  57  54  89 E7        29.95S FOG
GORDONSVILLE*  CLOUDY    55  55  99 NE3       29.97R FOG
ORANGE*        CLOUDY    55  55 100 CALM      29.99R
LOUISA*        DRIZZLE   59  57  94 E5        29.95F
BUMPASS*       CLOUDY    55  54  98 E6        29.97F
FARMVILLE*     CLOUDY    59  59 100 NE7       29.93F FOG
CREWE*         CLOUDY    59  59 100 NE3       29.95F
FORT PICKETT*  NOT AVBL
CHASE CITY*    CLOUDY    60  59  94 E3        29.92F VSB 1/2
CLARKSVILLE*   CLOUDY    61  61 100 SE3       29.94R
SOUTH HILL*    CLOUDY    59  59 100 N5        30.01R VSB 1/4
LAWRENCEVILLE* CLOUDY    59  59 100 NE3       29.95R VSB 1
EMPORIA*       CLOUDY    59  59 100 N6        29.96S FOG
$$

VAZ088>098-281500-
SOUTHEAST VIRGINIA

CITY           SKY/WX    TMP DP  RH WIND       PRES   REMARKS
NORFOLK        CLOUDY    56  54  93 E9        29.97S
VIRGINIA BEACH CLOUDY    59  54  83 E12       29.95F
NORFOLK NAVAL  CLOUDY    57  54  89 E12       29.98S
WEST POINT*    CLOUDY    56  55  97 NE6       29.99R
SALUDA*        CLOUDY    56  56 100 NE7       29.97F
NEWPORT NEWS   CLOUDY    57  56  96 E12       29.97R
LANGLEY AFB    CLOUDY    57  56  96 E12       29.97R
FORT EUSTIS    CLOUDY    58  58  99 SE8       29.94R
WILLIAMSBURG*  CLOUDY    61  59  94 E5        29.98R
HR EXEC AP*    CLOUDY    61  57  88 E6        29.98R
FRANKLIN*      CLOUDY    60  59  97 E7        29.95S FOG
US460-WAKEFLD  CLOUDY    60  57  89 NE6       29.96R FOG
$$

VAZ020-022-025-037-045-281500-
WEST CENTRAL AND SOUTHWEST VIRGINIA

CITY           SKY/WX    TMP DP  RH WIND       PRES   REMARKS
STAUNTON*      CLOUDY    59  59 100 N3        29.94S FOG
WAYNESBORO*    CLOUDY    57  56  96 MISG      29.92S
HOT SPRINGS VA FAIR      61  58  91 W9        29.96R
LYNCHBURG      CLOUDY    58  58 100 NE5       29.95S
DANVILLE       CLOUDY    65  64  97 CALM      29.92S
SOUTH BOSTON*  CLOUDY    62  60  95 E5        29.92F
MARTINSVILLE   FAIR      66  61  84 W3        29.95S
ROANOKE        CLOUDY    61  59  93 E6        29.95R
BLACKSBURG     FAIR      67  59  75 CALM      29.97S
DUBLIN*        FAIR      68  60  76 SW9       29.96S
MARION*        PTSUNNY   64  59  82 W8        29.99S
HILLSVILLE*    FAIR      62  59  87 W6        29.96S
RICHLANDS*     PTSUNNY   64  41  43 SW5       29.96S
WISE*          CLOUDY    64  61  88 SW7       29.97S
ABINGDON*      CLOUDY    66  62  85 CALM      29.96S
$$

MDZ021>025-VAZ099-100-281500-
SOUTHERN MARYLAND AND THE DELMARVA PENINSULA

CITY           SKY/WX    TMP DP  RH WIND       PRES   REMARKS
PATUXENT RIVER LGT RAIN  53  49  86 E8        29.99R FOG
BAY BRIDGE APT NOT AVBL
LEONARDTOWN    CLOUDY    50  48  93 E5        30.01R
DOVER          CLOUDY    54  51  88 E12       30.01R
GEORGETOWN     LGT RAIN  53  51  93 E6        30.00F FOG
EASTON         LGT RAIN N/A N/A N/A NE6       30.03R
CAMBRIDGE        N/A     50  48  93 NE5       29.98
SALISBURY      LGT RAIN  51  50  96 E8        29.97F FOG
OCEAN CITY     LGT RAIN  51  49  92 E10       29.99F
WALLOPS ISLAND LGT RAIN  53  50  89 E15       29.99S
ACCOMACK*      CLOUDY   N/A N/A N/A E6        29.99R FOG
$$

NCZ012>017-030>032-281500-
NORTH CENTRAL AND EASTERN NORTH CAROLINA

CITY           SKY/WX    TMP DP  RH WIND       PRES   REMARKS
ROANOKE RAPIDS CLOUDY    63  63 100 CALM      29.93S FOG
RALEIGH        PTSUNNY   70  62  76 SW7       29.93R
ELIZABETH CITY CLOUDY    63  61  93 E9        29.95S
AHOSKIE*       FAIR      66  64  94 CALM      29.93R
EDENTON*       FAIR      72  67  84 SW8       29.93F
CURRITUCK*     CLOUDY    59  59 100 NE8       29.97S FOG
KILL DEVIL HLS PTSUNNY   62  61  97 CALM      29.95R
MANTEO         NOT AVBL
CAPE HATTERAS  PTSUNNY   71  67  87 SW9       29.96S
TARBORO*       FAIR      72  64  76 SW8       29.93S
GOLDSBORO      NOT AVBL
WASHINGTON     FAIR      73  66  80 SW12      29.93S
GREENVILLE     FAIR      73  66  78 SW8       29.95S
NEW BERN       FAIR      77  66  68 SW10      29.95S
WILMINGTON     PTSUNNY   74  67  78 SW14G22   29.96S
$$

VAZ048-281500-
ELSEWHERE

CITY           SKY/WX    TMP DP  RH WIND       PRES   REMARKS
HARRISBURG PA  CLOUDY    52  25  35 E8        30.02S
BALTIMORE      LGT RAIN  54  45  71 E13       29.99S
ANNAPOLIS      LGT RAIN  53  49  86 E7        29.99S FOG
ANDREWS AFB    RAIN      52  50  90 E8        29.98R FOG
PHILADELPHIA   CLOUDY    54  36  50 NE9       30.04S
HENDERSON NC   CLOUDY   N/A N/A N/A CALM        N/A
GREENSBORO     CLOUDY    68  65  90 S5        29.92F FOG
ROCKY MOUNT    FAIR      71  64  78 S7        29.92S
$$

VAZ100-281500-
MARINE

STATION/POSITION TIME  TEMP    WIND        PRES    WAVE   SWELL
                       AIR SEA DIR/SP/G            HT/PER HT/PER
                 (UTC) (F)     (DEG/KT/KT) (MB)    (FT/S) (FT/S)
BRANDYWINE LGT   1300           80/ 13/ 14 1016.1R
CAPE MAY NJ      1300   53 58   50/  7/ 10 1016.0R
LEWES DE         1300      56   90/  5/  6 1016.2R
15NM E FENWICK I 1350   52 52              1016.1R   2/ 7
OCEAN-CITY-INLET 1300   51 55   60/  4/  7 1015.6R
WACHAPREAGUE VA  1300   53 62   70/ 15/ 17 1014.6R
THOMAS POINT MD  1400   54 58   60/ 13/ 14 1016.9S
GOOSES REEF MD   1400   53 58   80/  8/ 12 1016.6R   1/ 2
COVE POINT MD    1300   51     110/ 13/ 16 1015.8R
SOLOMONS ISLAND  1300   53 60   60/  9/ 11   N/A
BISHOPS HEAD MD  1300   52 60   60/ 12/ 16 1014.2F
PINEY POINT MD   1300           90/  6/  9   N/A
POTOMAC MD       1400   54 59  110/ 12/ 16 1014.5R   1/ 3
CAMBRIDGE MD     1300   53 62   80/  9/ 11 1014.8R
LEWISETTA VA     1300   54 62   90/ 12/ 14 1014.7R
RAPPAHANNOCK LGT 1300           90/  7/  8 1016.0R
STINGRAY PT      1400   55 62   90/ 10/ 12 1015.1F   1/ 3
YORK RVR RNG VA  1300   56      70/ 11/ 13 1014.2R
YORKTOWN VA      1300   56 62   80/ 12/ 13 1014.4R
JAMESTOWN VA     1400   58 68   90/  8/ 10   N/A     0
DOMINION TERM VA 1300   57      80/ 12/ 14 1014.4R
KIPTOPEKE VA     1300      60   80/  9/ 12   N/A
CHES BAY BRIDGE  1300   54 58   50/ 13/ 14 1014.4R
CAPE HENRY VA    1300   54      60/ 11/ 12   N/A
CHESAPEAKE LGHT  1300   53      70/ 13/ 14 1015.4R
WILLOUBY STN VA  1300   56      80/ 12/ 14 1015.4R
CAPE HENRY BUOY  1312      57                N/A     3/ 6
CAPE CHARLES BUO 1326      57                N/A     3/ 6   2/ 6
OFFSHORE WE BUOY 1321      55                N/A     4/ 6   3/ 6
64NM E OF VA BCH 1350   54 54  110/  6/  8 1014.3R   3/ 6   3/ 6
DUCK PIER NC     1300   58 63  120/  3/  4 1013.7R
44100 DUCK FRF   1324      58                N/A     3/ 6
44056 DUCK FRF   1311      57                N/A     3/ 6
OREGON INLET NC  1300   62 62  100/  6/  8 1013.6F
HATTERAS NC      1300   71 68  220/  6/ 11 1014.3S
DIAMOND SHLS NC  1350   71 71  260/ 12/ 12 1014.8R   3/ 6   2/ 6
CAPE LOOKOUT NC  1400   73     210/  9/ 12 1014.5S
$$




USA.gov is the U.S. government's official web portal to all federal, state and local government web resources and services.